Regional Weather Roundup
Issued by NWS

Home | Current Version | Previous Version | Text Only | Print | Product List | Glossary On
Versions: 1 2 3 4 5 6 7 8 9 10 11 12 13 14 15 16 17 18 19 20 21 22 23 24 25 26 27 28 29 30 31 32 33 34 35 36 37 38 39 40 41 42 43 44 45 46 47 48 49 50
000
ASUS44 KFWD 240915
RWRTX
NORTH TEXAS HOURLY WEATHER ROUNDUP
NATIONAL WEATHER SERVICE FORT WORTH TX
400 AM CDT TUE MAY 24 2016

NOTE: "FAIR" INDICATES FEW OR NO CLOUDS BELOW 12,000 FEET WITH NO
SIGNIFICANT WEATHER AND/OR OBSTRUCTIONS TO VISIBILITY.

TXZ118-119-241000-
DALLAS/FORT WORTH METROPLEX

CITY           SKY/WX    TMP DP  RH WIND       PRES   REMARKS
DFW AIRPORT    MOCLDY    76  70  82 S18       29.87R
DALLAS LOVE    MOCLDY    76  70  82 S14       29.88R
FTW MEACHAM    CLOUDY    76  70  82 S14G20    29.87R
DAL-EXECUTIVE  MOCLDY    74  69  85 S10       29.87F
FTW-ALLIANCE   CLOUDY    74  70  87 S8        29.87S
FTW-NAS-JRB    CLOUDY    76  70  82 S15       29.87R
FTW-SPINKS     MOCLDY    74  70  88 S8        29.89S
ARLINGTON      PTCLDY    77  70  79 S10G23    29.88R
GRAND PRAIRIE  CLOUDY    75  69  81 S9G16     29.89R
ADDISON        CLOUDY    76  72  86 S9        29.90R
MESQUITE       PTCLDY    73  69  90 S9        29.89F
LANCASTER      CLEAR     73  67  83 S8G16     29.89F
$$

TXZ091>094-102>105-117-120-121-131>134-241000-
NORTH CENTRAL TEXAS

CITY           SKY/WX    TMP DP  RH WIND       PRES   REMARKS
SHRMAN/DENISON MOCLDY    71  65  82 S13       29.88S
GAINESVILLE    CLOUDY    73  69  88 S9        29.89R
BOWIE          CLOUDY    73  69  87 S15G21    29.86F
DECATUR        MOCLDY    74  70  89 S12       29.89R
DENTON         CLOUDY    75  70  84 S13       29.88R
MCKINNEY       CLOUDY    74  70  87 S14       29.88S
GREENVILLE     PTCLDY    72  66  83 S9        29.90S
ROCKWALL       PTCLDY    73  70  89 SE10G20   29.88F
TERRELL        PTCLDY    72  69  90 S7        29.90S
WAXAHACHIE     PTCLDY    72  72  99 S8G16     29.89F
CLEBURNE       PTCLDY    73  73 100 S8        29.90S
GRANBURY       CLOUDY    76  70  81 SE10G16   29.89R
$$

TXZ083>090-098>101-113>116-127>130-139>142-154-155-241000-
WESTERN NORTH TEXAS

CITY           SKY/WX    TMP DP  RH WIND       PRES   REMARKS
WICHITA FALLS  TSTM      68  64  87 NE17G40   29.88R
WF-KICKAPOO    CLOUDY    76  70  82 N9        29.90R
VERNON         CLOUDY    67  58  74 SE8       29.87F
ABILENE        CLEAR     73  70  90 S15G23    29.85R
ABILENE-DYESS  PTCLDY    74  65  75 SE14      29.83R
BRECKENRIDGE   CLOUDY    77  69  78 S12G17    29.84S
GRAHAM         CLOUDY    74  72  93 SE9       29.85R
MINERAL WELLS  CLOUDY    74  70  87 S10       29.86S
STEPHENVILLE   CLOUDY    73  68  84 S8G16     29.91S
COMANCHE       CLOUDY    73  73 100 SE10      29.89S
COLEMAN        CLOUDY    75  69  82 S8        29.88R
$$

TXZ143>147-156>162-174-175-241000-
CENTRAL TEXAS

CITY           SKY/WX    TMP DP  RH WIND       PRES   REMARKS
WACO           CLOUDY    75  70  84 SE16G23   29.89F
WACO-MCGREGOR  LGT RAIN  73  72  94 SE9       29.90S
HILLSBORO      MOCLDY    71  70  95 SE12      29.88F
CORSICANA      CLEAR     73  68  84 S8        29.91S
MEXIA          PTCLDY    71  69  95 SE7       29.90F
HEARNE         CLOUDY    73  71  94 SE5       29.92F
CAMERON        CLOUDY    73  71  93 SE7       29.90F
TEMPLE         CLOUDY    73  72  94 SE10      29.90S
KILLEEN        CLOUDY    73  71  93 SE9       29.88F
KILLEEN-SKYLRK CLOUDY    74  71  91 S9        29.90F
FORT HOOD      CLOUDY    73  71  95 S9        29.87F
GATESVILLE     CLOUDY    73  72  94 S8        29.92S
HAMILTON       CLOUDY    73  73 100 S12       29.91R FOG
LAMPASAS       CLOUDY    73  72  95 S6        29.89S
$$

TXZ095>097-106>112-122>126-135>138-148>153-164>167-241000-
EAST TEXAS

CITY           SKY/WX    TMP DP  RH WIND       PRES   REMARKS
PARIS          CLEAR     70  61  73 S7        29.91R
SULPHUR SPRNGS CLEAR     74  67  79 S14       29.92R
MOUNT PLEASANT CLEAR     72  66  82 S5        29.93R
GILMER         CLEAR     72  66  83 S7        29.92R
MINEOLA        CLEAR     73  66  78 S6        29.91S
TYLER          CLEAR     72  66  81 S12       29.91F
LONGVIEW       CLEAR     69  68  96 S6        29.92R
MARSHALL       CLEAR     70  67  90 CALM      29.95R
ATHENS         MOCLDY    70  70 100 S8        29.89F
PALESTINE      PTCLDY    71  69  94 SE6       29.92F
JACKSONVILLE   PTCLDY    69  68  97 S7        29.94F
HENDERSON      CLEAR     69  67  93 CALM      29.95R
CENTER         FAIR      72  71  95 S6        29.94S
NACOGDOCHES    PTCLDY    68  66  94 SE3       29.93S
LUFKIN         CLEAR     68  67  96 CALM      29.93F
$$

SUPPLEMENTAL OBSERVATIONS (CENTRAL)

CITY           SKY/WX    TMP DP  RH WIND       PRES   REMARKS
LAKE TEXOMA      N/A     75  70  83 S8          N/A
PAT MAYSE LAKE   N/A     72  70  94 SE7         N/A
GREENVILLE       N/A     73  68  83 S6G14       N/A
TEMPLE           N/A     73  70  88 SE9         N/A
$$

SUPPLEMENTAL OBSERVATIONS (WEST)

CITY           SKY/WX    TMP DP  RH WIND       PRES   REMARKS
MILLERS CREEK    N/A     75  70  83 SE9G17      N/A
POSSUM KINGDOM   N/A     75  72  88 SE9         N/A
GRANBURY         N/A     75  70  83 S13         N/A
HAMBY            N/A     73  68  83 S15         N/A
IVIE RESERVOIR   N/A     75  70  83 SE5         N/A
COLORADO BEND    N/A     73  70  88 SW7G16      N/A
$$

SUPPLEMENTAL OBSERVATIONS (EAST)

CITY           SKY/WX    TMP DP  RH WIND       PRES   REMARKS
CLARKSVILLE      N/A     70  66  88 S5          N/A
TEXARKANA        N/A     64  63  94 CALM        N/A
LINDEN           N/A     70  64  83 SE1         N/A
CADDO LAKE       N/A     68  64  88 CALM        N/A
GILMER           N/A     72  64  78 S5          N/A
HENDERSON        N/A     70  66  88 CALM        N/A
LUFKIN           N/A     70  68  94 MISG        N/A
N SABINE NF      N/A     70  66  88 MISG        N/A
S SABINE NF      N/A     68  66  94 CALM        N/A
$$

SUPPLEMENTAL OBSERVATIONS ARE A COLLECTION OF AUTOMATED INSTRUMENTS
THAT ARE MAINTAINED BY A VARIETY OF FEDERAL AND STATE AGENCIES.
CERTAIN ELEMENTS...SUCH AS HUMIDITY VALUES AND SUSTAINED WIND
SPEEDS...MAY BE APPROXIMATED.




USA.gov is the U.S. government's official web portal to all federal, state and local government web resources and services.